Total_Precipitation_Accumulation
0.00 0.00 0.00 0.00 0.00 0.00 0.00 0.00 0.00 0.00 0.00 0.00 0.00 0.00 0.00 0.00 0.00 0.00 0.00 0.00 0.00 0.00 0.00 0.00 0.00 0.00 0.00 0.00 0.00 0.00 0.00 0.00 0.00 0.00 0.00 0.00 0.00 0.00 0.00 0.00 0.00 0.00 0.00 0.00
0.00 0.00 0.00 0.00 0.00 0.00 0.00 0.00 0.00 0.00 0.00 0.00 0.00 0.00 0.00 0.00 0.00 0.00 0.00 0.00 0.00 0.00 0.00 0.00 0.00 0.00 0.00 0.00 0.00 0.00 0.00 0.00 0.00 0.00 0.00 0.00 0.00 0.00 0.00 0.00 0.00 0.00 0.00 0.00
0.00 0.00 0.00 0.00 0.00 0.00 0.00 0.00 0.00 0.00 0.00 0.00 0.00 0.00 0.00 0.00 0.00 0.00 0.00 0.00 0.00 0.00 0.00 0.00 0.00 0.00 0.00 0.00 0.00 0.00 0.00 0.00 0.00 0.00 0.00 0.00 0.00 0.00 0.00 0.00 0.00 0.00 0.00 0.00
0.00 0.00 0.00 0.00 0.00 0.00 0.00 0.00 0.00 0.00 0.00 0.00 0.00 0.00 0.00 0.00 0.00 0.00 0.00 0.00 0.00 0.00 0.00 0.00 0.00 0.00 0.00 0.00 0.00 0.00 0.00 0.00 0.00 0.00 0.00 0.00 0.00 0.00 0.00 0.00 0.00 0.00 0.00 0.00
0.00 0.00 0.00 0.00 0.00 0.00 0.00 0.00 0.00 0.00 0.00 0.00 0.00 0.00 0.00 0.00 0.00 0.00 0.00 0.00 0.00 0.00 0.00 0.00 0.00 0.00 0.00 0.00 0.00 0.00 0.00 0.00 0.00 0.00 0.00 0.00 0.00 0.00 0.00 0.00 0.00 0.00 0.00 0.00
0.00 0.00 0.00 0.00 0.00 0.00 0.00 0.00 0.00 0.00 0.00 0.00 0.00 0.00 0.00 0.00 0.00 0.00 0.00 0.00 0.00 0.00 0.00 0.00 0.00 0.00 0.00 0.00 0.00 0.00 0.00 0.00 0.00 0.00 0.00 0.00 0.00 0.00 0.00 0.00 0.00 0.00 0.00 0.00
0.00 0.00 0.00 0.00 0.00 0.00 0.00 0.01 0.01 0.03 0.02 0.00 0.00 0.00 0.00 0.00 0.00 0.00 0.00 0.00 0.00 0.00 0.00 0.00 0.00 0.00 0.00 0.00 0.00 0.00 0.00 0.00 0.00 0.00 0.00 0.00 0.00 0.00 0.00 0.00 0.00 0.00 0.00 0.00
0.00 0.00 0.00 0.00 0.00 0.00 0.00 0.01 0.03 0.06 0.05 0.00 0.00 0.00 0.00 0.00 0.00 0.00 0.00 0.00 0.00 0.00 0.00 0.00 0.00 0.00 0.00 0.00 0.00 0.00 0.00 0.00 0.00 0.00 0.00 0.00 0.00 0.00 0.00 0.00 0.00 0.00 0.00 0.00
0.01 0.00 0.00 0.00 0.00 0.00 0.00 0.01 0.02 0.07 0.12 0.03 0.00 0.01 0.00 0.00 0.00 0.00 0.00 0.00 0.00 0.00 0.00 0.00 0.00 0.00 0.00 0.00 0.00 0.00 0.00 0.00 0.00 0.00 0.00 0.00 0.00 0.00 0.00 0.00 0.00 0.00 0.00 0.00
0.01 0.01 0.01 0.01 0.01 0.01 0.01 0.01 0.00 0.04 0.14 0.04 0.00 0.02 0.04 0.02 0.01 0.00 0.00 0.00 0.00 0.00 0.00 0.00 0.00 0.00 0.00 0.00 0.00 0.00 0.00 0.00 0.00 0.00 0.00 0.00 0.00 0.00 0.00 0.00 0.00 0.00 0.00 0.00
0.02 0.02 0.02 0.03 0.03 0.03 0.02 0.02 0.00 0.02 0.08 0.03 0.02 0.05 0.06 0.05 0.04 0.06 0.01 0.00 0.00 0.00 0.00 0.00 0.00 0.00 0.00 0.00 0.00 0.00 0.00 0.00 0.00 0.00 0.00 0.00 0.00 0.00 0.00 0.00 0.00 0.00 0.00 0.00
0.02 0.03 0.04 0.06 0.05 0.05 0.06 0.03 0.01 0.01 0.03 0.01 0.01 0.02 0.03 0.05 0.05 0.15 0.10 0.05 0.01 0.00 0.00 0.00 0.00 0.00 0.00 0.00 0.00 0.00 0.00 0.00 0.00 0.00 0.00 0.00 0.00 0.00 0.00 0.00 0.02 0.04 0.03 0.03
0.03 0.04 0.06 0.07 0.07 0.08 0.11 0.06 0.04 0.05 0.03 0.00 0.00 0.01 0.03 0.05 0.08 0.21 0.32 0.11 0.07 0.07 0.05 0.04 0.05 0.06 0.02 0.01 0.00 0.00 0.00 0.00 0.00 0.01 0.01 0.01 0.03 0.06 0.10 0.14 0.13 0.09 0.02 0.00
0.06 0.09 0.07 0.06 0.06 0.07 0.11 0.07 0.05 0.10 0.08 0.06 0.00 0.00 0.01 0.06 0.10 0.16 0.36 0.41 0.35 0.46 0.50 0.58 0.48 0.29 0.12 0.07 0.02 0.03 0.03 0.07 0.09 0.18 0.23 0.23 0.31 0.26 0.21 0.16 0.07 0.02 0.00 0.00
0.07 0.07 0.05 0.05 0.04 0.06 0.04 0.01 0.02 0.06 0.13 0.15 0.01 0.00 0.00 0.00 0.01 0.05 0.12 0.31 0.47 0.66 0.80 0.82 0.66 0.43 0.30 0.29 0.30 0.38 0.29 0.27 0.25 0.30 0.22 0.15 0.26 0.26 0.19 0.13 0.07 0.04 0.02 0.01
0.05 0.04 0.04 0.05 0.07 0.11 0.02 0.01 0.03 0.09 0.21 0.28 0.05 0.00 0.00 0.00 0.01 0.03 0.06 0.14 0.42 0.63 0.64 0.60 0.63 0.63 0.54 0.68 0.61 0.53 0.34 0.27 0.28 0.34 0.35 0.25 0.28 0.19 0.15 0.11 0.06 0.02 0.01 0.00
0.04 0.05 0.05 0.04 0.07 0.06 0.02 0.01 0.09 0.13 0.19 0.18 0.05 0.00 0.00 0.00 0.06 0.18 0.17 0.14 0.34 0.57 0.65 0.59 0.68 0.60 0.42 0.61 0.51 0.45 0.35 0.36 0.40 0.39 0.25 0.26 0.20 0.15 0.07 0.03 0.01 0.00 0.00 0.00
0.02 0.02 0.01 0.01 0.00 0.01 0.02 0.07 0.09 0.06 0.16 0.17 0.08 0.01 0.02 0.01 0.14 0.32 0.41 0.46 0.63 0.58 0.67 0.69 0.53 0.49 0.40 0.50 0.61 0.43 0.35 0.24 0.18 0.19 0.14 0.15 0.11 0.03 0.01 0.01 0.00 0.00 0.00 0.00
0.00 0.00 0.00 0.00 0.02 0.04 0.03 0.02 0.03 0.05 0.17 0.30 0.17 0.11 0.05 0.02 0.07 0.14 0.15 0.21 0.48 0.42 0.43 0.55 0.33 0.39 0.43 0.56 0.43 0.33 0.26 0.16 0.16 0.07 0.04 0.03 0.01 0.00 0.00 0.00 0.00 0.00 0.00 0.00
0.00 0.00 0.00 0.01 0.01 0.00 0.00 0.05 0.03 0.05 0.06 0.08 0.17 0.10 0.12 0.05 0.03 0.12 0.12 0.20 0.32 0.23 0.31 0.22 0.22 0.46 0.54 0.41 0.30 0.21 0.11 0.06 0.04 0.02 0.01 0.00 0.00 0.00 0.00 0.00 0.00 0.00 0.00 0.00
0.00 0.00 0.00 0.00 0.00 0.00 0.01 0.02 0.01 0.07 0.15 0.05 0.05 0.02 0.06 0.07 0.06 0.06 0.06 0.14 0.23 0.19 0.25 0.14 0.21 0.36 0.41 0.28 0.15 0.05 0.02 0.01 0.00 0.00 0.00 0.00 0.00 0.00 0.00 0.00 0.00 0.00 0.00 0.00
0.00 0.00 0.00 0.00 0.00 0.00 0.00 0.00 0.01 0.07 0.13 0.05 0.02 0.00 0.02 0.03 0.02 0.11 0.11 0.17 0.13 0.19 0.18 0.10 0.19 0.35 0.18 0.05 0.01 0.00 0.00 0.00 0.00 0.00 0.00 0.00 0.00 0.00 0.00 0.00 0.00 0.00 0.00 0.00
0.00 0.00 0.00 0.00 0.00 0.00 0.02 0.03 0.05 0.08 0.04 0.02 0.01 0.00 0.00 0.00 0.00 0.00 0.02 0.05 0.09 0.10 0.07 0.10 0.21 0.12 0.02 0.00 0.00 0.00 0.00 0.00 0.00 0.00 0.00 0.00 0.00 0.00 0.00 0.00 0.00 0.00 0.00 0.00
0.00 0.00 0.00 0.01 0.03 0.08 0.09 0.09 0.07 0.04 0.01 0.01 0.01 0.00 0.00 0.00 0.00 0.00 0.01 0.02 0.03 0.03 0.05 0.13 0.11 0.02 0.00 0.00 0.00 0.00 0.00 0.00 0.00 0.00 0.00 0.00 0.00 0.00 0.00 0.00 0.00 0.00 0.00 0.00
0.00 0.00 0.01 0.06 0.10 0.05 0.02 0.01 0.01 0.01 0.01 0.00 0.00 0.00 0.00 0.00 0.00 0.00 0.00 0.00 0.02 0.06 0.12 0.09 0.03 0.00 0.00 0.00 0.00 0.00 0.00 0.00 0.00 0.00 0.00 0.00 0.00 0.00 0.00 0.00 0.00 0.00 0.00 0.00
0.00 0.02 0.05 0.07 0.09 0.02 0.00 0.00 0.01 0.01 0.01 0.00 0.00 0.00 0.00 0.00 0.00 0.00 0.01 0.01 0.06 0.11 0.07 0.03 0.00 0.00 0.00 0.00 0.00 0.00 0.00 0.00 0.00 0.00 0.00 0.00 0.00 0.00 0.00 0.00 0.00 0.00 0.00 0.00
0.01 0.05 0.05 0.06 0.07 0.08 0.03 0.02 0.01 0.01 0.01 0.00 0.00 0.00 0.00 0.00 0.00 0.02 0.03 0.09 0.10 0.05 0.02 0.00 0.00 0.00 0.00 0.00 0.00 0.00 0.00 0.00 0.00 0.00 0.00 0.00 0.00 0.00 0.00 0.00 0.00 0.00 0.00 0.00